Location: ?????
(44.4284°N, 135.2222°E)
Time: 10:15:12
(UTC+00:00)

DELTA 2 R/B (1) - Pass Details

Date: 22 January 2026
Orbit: 786 x 800 km, 39.6° (Epoch: 10 February)

Event Time Altitude Azimuth Distance (km) Brightness Sun altitude
Rises 11:25:14 0° 273° (W) 3,285 7.7 -37.4°
Reaches altitude 10° 11:27:55 10° 264° (W) 2,351 6.7 -37.9°
Enters shadow 11:30:03 21° 248° (WSW) 1,709 5.7 -38.3°
